Index of /20260509/WXO-DD/model_rdps/10km/06/059
Name Last modified Size Description
Parent Directory -
20260509T06Z_MSC_RDPS_AbsoluteVorticity_IsbL-0250_RLatLon0.09_PT059H.grib2 2026-05-09 09:00 607K
20260509T06Z_MSC_RDPS_AbsoluteVorticity_IsbL-0500_RLatLon0.09_PT059H.grib2 2026-05-09 09:00 575K
20260509T06Z_MSC_RDPS_AbsoluteVorticity_IsbL-0700_RLatLon0.09_PT059H.grib2 2026-05-09 09:00 625K
20260509T06Z_MSC_RDPS_AbsoluteVorticity_IsbL-0850_RLatLon0.09_PT059H.grib2 2026-05-09 09:00 794K
20260509T06Z_MSC_RDPS_AirTemp_AGL-120m_RLatLon0.09_PT059H.grib2 2026-05-09 09:00 384K
20260509T06Z_MSC_RDPS_AirTemp_AGL-2m_RLatLon0.09_PT059H.grib2 2026-05-09 09:00 632K
20260509T06Z_MSC_RDPS_AirTemp_AGL-40m_RLatLon0.09_PT059H.grib2 2026-05-09 09:00 394K
20260509T06Z_MSC_RDPS_AirTemp_AGL-80m_RLatLon0.09_PT059H.grib2 2026-05-09 09:00 389K
20260509T06Z_MSC_RDPS_AirTemp_IsbL-0001_RLatLon0.09_PT059H.grib2 2026-05-09 09:00 250K
20260509T06Z_MSC_RDPS_AirTemp_IsbL-0005_RLatLon0.09_PT059H.grib2 2026-05-09 09:00 293K
20260509T06Z_MSC_RDPS_AirTemp_IsbL-0010_RLatLon0.09_PT059H.grib2 2026-05-09 09:00 391K
20260509T06Z_MSC_RDPS_AirTemp_IsbL-0020_RLatLon0.09_PT059H.grib2 2026-05-09 09:00 319K
20260509T06Z_MSC_RDPS_AirTemp_IsbL-0030_RLatLon0.09_PT059H.grib2 2026-05-09 09:00 341K
20260509T06Z_MSC_RDPS_AirTemp_IsbL-0050_RLatLon0.09_PT059H.grib2 2026-05-09 09:00 310K
20260509T06Z_MSC_RDPS_AirTemp_IsbL-0100_RLatLon0.09_PT059H.grib2 2026-05-09 09:00 419K
20260509T06Z_MSC_RDPS_AirTemp_IsbL-0150_RLatLon0.09_PT059H.grib2 2026-05-09 09:00 400K
20260509T06Z_MSC_RDPS_AirTemp_IsbL-0175_RLatLon0.09_PT059H.grib2 2026-05-09 09:00 392K
20260509T06Z_MSC_RDPS_AirTemp_IsbL-0200_RLatLon0.09_PT059H.grib2 2026-05-09 09:00 401K
20260509T06Z_MSC_RDPS_AirTemp_IsbL-0225_RLatLon0.09_PT059H.grib2 2026-05-09 09:00 410K
20260509T06Z_MSC_RDPS_AirTemp_IsbL-0250_RLatLon0.09_PT059H.grib2 2026-05-09 09:00 423K
20260509T06Z_MSC_RDPS_AirTemp_IsbL-0275_RLatLon0.09_PT059H.grib2 2026-05-09 09:00 403K
20260509T06Z_MSC_RDPS_AirTemp_IsbL-0300_RLatLon0.09_PT059H.grib2 2026-05-09 09:00 408K
20260509T06Z_MSC_RDPS_AirTemp_IsbL-0350_RLatLon0.09_PT059H.grib2 2026-05-09 09:00 419K
20260509T06Z_MSC_RDPS_AirTemp_IsbL-0400_RLatLon0.09_PT059H.grib2 2026-05-09 09:00 423K
20260509T06Z_MSC_RDPS_AirTemp_IsbL-0450_RLatLon0.09_PT059H.grib2 2026-05-09 09:00 431K
20260509T06Z_MSC_RDPS_AirTemp_IsbL-0500_RLatLon0.09_PT059H.grib2 2026-05-09 09:00 441K
20260509T06Z_MSC_RDPS_AirTemp_IsbL-0550_RLatLon0.09_PT059H.grib2 2026-05-09 09:00 459K
20260509T06Z_MSC_RDPS_AirTemp_IsbL-0600_RLatLon0.09_PT059H.grib2 2026-05-09 09:00 481K
20260509T06Z_MSC_RDPS_AirTemp_IsbL-0650_RLatLon0.09_PT059H.grib2 2026-05-09 09:00 461K
20260509T06Z_MSC_RDPS_AirTemp_IsbL-0700_RLatLon0.09_PT059H.grib2 2026-05-09 09:00 525K
20260509T06Z_MSC_RDPS_AirTemp_IsbL-0750_RLatLon0.09_PT059H.grib2 2026-05-09 09:00 571K
20260509T06Z_MSC_RDPS_AirTemp_IsbL-0800_RLatLon0.09_PT059H.grib2 2026-05-09 09:00 591K
20260509T06Z_MSC_RDPS_AirTemp_IsbL-0850_RLatLon0.09_PT059H.grib2 2026-05-09 09:00 640K
20260509T06Z_MSC_RDPS_AirTemp_IsbL-0875_RLatLon0.09_PT059H.grib2 2026-05-09 09:00 658K
20260509T06Z_MSC_RDPS_AirTemp_IsbL-0900_RLatLon0.09_PT059H.grib2 2026-05-09 09:00 668K
20260509T06Z_MSC_RDPS_AirTemp_IsbL-0925_RLatLon0.09_PT059H.grib2 2026-05-09 09:00 539K
20260509T06Z_MSC_RDPS_AirTemp_IsbL-0950_RLatLon0.09_PT059H.grib2 2026-05-09 09:00 544K
20260509T06Z_MSC_RDPS_AirTemp_IsbL-0970_RLatLon0.09_PT059H.grib2 2026-05-09 09:00 542K
20260509T06Z_MSC_RDPS_AirTemp_IsbL-0985_RLatLon0.09_PT059H.grib2 2026-05-09 09:00 532K
20260509T06Z_MSC_RDPS_AirTemp_IsbL-1000_RLatLon0.09_PT059H.grib2 2026-05-09 09:00 514K
20260509T06Z_MSC_RDPS_AirTemp_IsbL-1015_RLatLon0.09_PT059H.grib2 2026-05-09 09:00 515K
20260509T06Z_MSC_RDPS_Albedo_Sfc_RLatLon0.09_PT059H.grib2 2026-05-09 09:00 156K
20260509T06Z_MSC_RDPS_CAPE_Sfc_RLatLon0.09_PT059H.grib2 2026-05-09 09:00 1.9M
20260509T06Z_MSC_RDPS_CIN_Sfc_RLatLon0.09_PT059H.grib2 2026-05-09 09:00 1.3M
20260509T06Z_MSC_RDPS_CloudWater_EAtm_RLatLon0.09_PT059H.grib2 2026-05-09 09:00 229K
20260509T06Z_MSC_RDPS_ConvectivePrecip-Accum_Sfc_RLatLon0.09_PT059H.grib2 2026-05-09 09:00 1.2M
20260509T06Z_MSC_RDPS_DewPointDepression_AGL-2m_RLatLon0.09_PT059H.grib2 2026-05-09 09:00 422K
20260509T06Z_MSC_RDPS_DewPointDepression_IsbL-0001_RLatLon0.09_PT059H.grib2 2026-05-09 09:00 193
20260509T06Z_MSC_RDPS_DewPointDepression_IsbL-0005_RLatLon0.09_PT059H.grib2 2026-05-09 09:00 193
20260509T06Z_MSC_RDPS_DewPointDepression_IsbL-0010_RLatLon0.09_PT059H.grib2 2026-05-09 09:00 193
20260509T06Z_MSC_RDPS_DewPointDepression_IsbL-0020_RLatLon0.09_PT059H.grib2 2026-05-09 09:00 193
20260509T06Z_MSC_RDPS_DewPointDepression_IsbL-0030_RLatLon0.09_PT059H.grib2 2026-05-09 09:00 193
20260509T06Z_MSC_RDPS_DewPointDepression_IsbL-0050_RLatLon0.09_PT059H.grib2 2026-05-09 09:00 106K
20260509T06Z_MSC_RDPS_DewPointDepression_IsbL-0100_RLatLon0.09_PT059H.grib2 2026-05-09 09:00 112K
20260509T06Z_MSC_RDPS_DewPointDepression_IsbL-0150_RLatLon0.09_PT059H.grib2 2026-05-09 09:00 142K
20260509T06Z_MSC_RDPS_DewPointDepression_IsbL-0175_RLatLon0.09_PT059H.grib2 2026-05-09 09:00 165K
20260509T06Z_MSC_RDPS_DewPointDepression_IsbL-0200_RLatLon0.09_PT059H.grib2 2026-05-09 09:00 213K
20260509T06Z_MSC_RDPS_DewPointDepression_IsbL-0225_RLatLon0.09_PT059H.grib2 2026-05-09 09:00 257K
20260509T06Z_MSC_RDPS_DewPointDepression_IsbL-0250_RLatLon0.09_PT059H.grib2 2026-05-09 09:00 301K
20260509T06Z_MSC_RDPS_DewPointDepression_IsbL-0275_RLatLon0.09_PT059H.grib2 2026-05-09 09:00 307K
20260509T06Z_MSC_RDPS_DewPointDepression_IsbL-0300_RLatLon0.09_PT059H.grib2 2026-05-09 09:00 324K
20260509T06Z_MSC_RDPS_DewPointDepression_IsbL-0350_RLatLon0.09_PT059H.grib2 2026-05-09 09:00 331K
20260509T06Z_MSC_RDPS_DewPointDepression_IsbL-0400_RLatLon0.09_PT059H.grib2 2026-05-09 09:00 344K
20260509T06Z_MSC_RDPS_DewPointDepression_IsbL-0450_RLatLon0.09_PT059H.grib2 2026-05-09 09:00 352K
20260509T06Z_MSC_RDPS_DewPointDepression_IsbL-0500_RLatLon0.09_PT059H.grib2 2026-05-09 09:00 355K
20260509T06Z_MSC_RDPS_DewPointDepression_IsbL-0550_RLatLon0.09_PT059H.grib2 2026-05-09 09:00 363K
20260509T06Z_MSC_RDPS_DewPointDepression_IsbL-0600_RLatLon0.09_PT059H.grib2 2026-05-09 09:00 379K
20260509T06Z_MSC_RDPS_DewPointDepression_IsbL-0650_RLatLon0.09_PT059H.grib2 2026-05-09 09:00 387K
20260509T06Z_MSC_RDPS_DewPointDepression_IsbL-0700_RLatLon0.09_PT059H.grib2 2026-05-09 09:00 398K
20260509T06Z_MSC_RDPS_DewPointDepression_IsbL-0750_RLatLon0.09_PT059H.grib2 2026-05-09 09:00 420K
20260509T06Z_MSC_RDPS_DewPointDepression_IsbL-0800_RLatLon0.09_PT059H.grib2 2026-05-09 09:00 464K
20260509T06Z_MSC_RDPS_DewPointDepression_IsbL-0850_RLatLon0.09_PT059H.grib2 2026-05-09 09:00 478K
20260509T06Z_MSC_RDPS_DewPointDepression_IsbL-0875_RLatLon0.09_PT059H.grib2 2026-05-09 09:00 472K
20260509T06Z_MSC_RDPS_DewPointDepression_IsbL-0900_RLatLon0.09_PT059H.grib2 2026-05-09 09:00 460K
20260509T06Z_MSC_RDPS_DewPointDepression_IsbL-0925_RLatLon0.09_PT059H.grib2 2026-05-09 09:00 448K
20260509T06Z_MSC_RDPS_DewPointDepression_IsbL-0950_RLatLon0.09_PT059H.grib2 2026-05-09 09:00 448K
20260509T06Z_MSC_RDPS_DewPointDepression_IsbL-0970_RLatLon0.09_PT059H.grib2 2026-05-09 09:00 448K
20260509T06Z_MSC_RDPS_DewPointDepression_IsbL-0985_RLatLon0.09_PT059H.grib2 2026-05-09 09:00 443K
20260509T06Z_MSC_RDPS_DewPointDepression_IsbL-1000_RLatLon0.09_PT059H.grib2 2026-05-09 09:00 435K
20260509T06Z_MSC_RDPS_DewPointDepression_IsbL-1015_RLatLon0.09_PT059H.grib2 2026-05-09 09:00 425K
20260509T06Z_MSC_RDPS_DewPoint_AGL-2m_RLatLon0.09_PT059H.grib2 2026-05-09 09:00 402K
20260509T06Z_MSC_RDPS_DownwardLongwaveRadiationFlux-Accum_Sfc_RLatLon0.09_PT059H.grib2 2026-05-09 09:00 393K
20260509T06Z_MSC_RDPS_DownwardShortwaveRadiationFlux-Accum_NTAtm_RLatLon0.09_PT059H.grib2 2026-05-09 09:00 97K
20260509T06Z_MSC_RDPS_DownwardShortwaveRadiationFlux-Accum_Sfc_RLatLon0.09_PT059H.grib2 2026-05-09 09:00 605K
20260509T06Z_MSC_RDPS_FreezingRain-Accum1h_Sfc_RLatLon0.09_PT059H.grib2 2026-05-09 09:00 40K
20260509T06Z_MSC_RDPS_FreezingRain-Accum_Sfc_RLatLon0.09_PT059H.grib2 2026-05-09 09:00 185K
20260509T06Z_MSC_RDPS_GeopotentialHeight_IsbL-0001_RLatLon0.09_PT059H.grib2 2026-05-09 09:00 250K
20260509T06Z_MSC_RDPS_GeopotentialHeight_IsbL-0005_RLatLon0.09_PT059H.grib2 2026-05-09 09:00 341K
20260509T06Z_MSC_RDPS_GeopotentialHeight_IsbL-0010_RLatLon0.09_PT059H.grib2 2026-05-09 09:00 310K
20260509T06Z_MSC_RDPS_GeopotentialHeight_IsbL-0020_RLatLon0.09_PT059H.grib2 2026-05-09 09:00 310K
20260509T06Z_MSC_RDPS_GeopotentialHeight_IsbL-0030_RLatLon0.09_PT059H.grib2 2026-05-09 09:00 312K
20260509T06Z_MSC_RDPS_GeopotentialHeight_IsbL-0050_RLatLon0.09_PT059H.grib2 2026-05-09 09:00 311K
20260509T06Z_MSC_RDPS_GeopotentialHeight_IsbL-0100_RLatLon0.09_PT059H.grib2 2026-05-09 09:00 283K
20260509T06Z_MSC_RDPS_GeopotentialHeight_IsbL-0150_RLatLon0.09_PT059H.grib2 2026-05-09 09:00 225K
20260509T06Z_MSC_RDPS_GeopotentialHeight_IsbL-0175_RLatLon0.09_PT059H.grib2 2026-05-09 09:00 227K
20260509T06Z_MSC_RDPS_GeopotentialHeight_IsbL-0200_RLatLon0.09_PT059H.grib2 2026-05-09 09:00 229K
20260509T06Z_MSC_RDPS_GeopotentialHeight_IsbL-0225_RLatLon0.09_PT059H.grib2 2026-05-09 09:00 232K
20260509T06Z_MSC_RDPS_GeopotentialHeight_IsbL-0250_RLatLon0.09_PT059H.grib2 2026-05-09 09:00 234K
20260509T06Z_MSC_RDPS_GeopotentialHeight_IsbL-0275_RLatLon0.09_PT059H.grib2 2026-05-09 09:00 234K
20260509T06Z_MSC_RDPS_GeopotentialHeight_IsbL-0300_RLatLon0.09_PT059H.grib2 2026-05-09 09:00 234K
20260509T06Z_MSC_RDPS_GeopotentialHeight_IsbL-0350_RLatLon0.09_PT059H.grib2 2026-05-09 09:00 229K
20260509T06Z_MSC_RDPS_GeopotentialHeight_IsbL-0400_RLatLon0.09_PT059H.grib2 2026-05-09 09:00 226K
20260509T06Z_MSC_RDPS_GeopotentialHeight_IsbL-0450_RLatLon0.09_PT059H.grib2 2026-05-09 09:00 294K
20260509T06Z_MSC_RDPS_GeopotentialHeight_IsbL-0500_RLatLon0.09_PT059H.grib2 2026-05-09 09:00 289K
20260509T06Z_MSC_RDPS_GeopotentialHeight_IsbL-0550_RLatLon0.09_PT059H.grib2 2026-05-09 09:00 285K
20260509T06Z_MSC_RDPS_GeopotentialHeight_IsbL-0600_RLatLon0.09_PT059H.grib2 2026-05-09 09:00 283K
20260509T06Z_MSC_RDPS_GeopotentialHeight_IsbL-0650_RLatLon0.09_PT059H.grib2 2026-05-09 09:00 254K
20260509T06Z_MSC_RDPS_GeopotentialHeight_IsbL-0700_RLatLon0.09_PT059H.grib2 2026-05-09 09:00 254K
20260509T06Z_MSC_RDPS_GeopotentialHeight_IsbL-0750_RLatLon0.09_PT059H.grib2 2026-05-09 09:00 258K
20260509T06Z_MSC_RDPS_GeopotentialHeight_IsbL-0800_RLatLon0.09_PT059H.grib2 2026-05-09 09:00 351K
20260509T06Z_MSC_RDPS_GeopotentialHeight_IsbL-0850_RLatLon0.09_PT059H.grib2 2026-05-09 09:00 360K
20260509T06Z_MSC_RDPS_GeopotentialHeight_IsbL-0875_RLatLon0.09_PT059H.grib2 2026-05-09 09:00 360K
20260509T06Z_MSC_RDPS_GeopotentialHeight_IsbL-0900_RLatLon0.09_PT059H.grib2 2026-05-09 09:00 365K
20260509T06Z_MSC_RDPS_GeopotentialHeight_IsbL-0925_RLatLon0.09_PT059H.grib2 2026-05-09 09:00 367K
20260509T06Z_MSC_RDPS_GeopotentialHeight_IsbL-0950_RLatLon0.09_PT059H.grib2 2026-05-09 09:00 371K
20260509T06Z_MSC_RDPS_GeopotentialHeight_IsbL-0970_RLatLon0.09_PT059H.grib2 2026-05-09 09:00 379K
20260509T06Z_MSC_RDPS_GeopotentialHeight_IsbL-0985_RLatLon0.09_PT059H.grib2 2026-05-09 09:00 390K
20260509T06Z_MSC_RDPS_GeopotentialHeight_IsbL-1000_RLatLon0.09_PT059H.grib2 2026-05-09 09:00 403K
20260509T06Z_MSC_RDPS_GeopotentialHeight_IsbL-1015_RLatLon0.09_PT059H.grib2 2026-05-09 09:00 421K
20260509T06Z_MSC_RDPS_HighLowPressure_MSL_RLatLon0.09_PT059H.json 2026-05-09 08:53 19K
20260509T06Z_MSC_RDPS_Humidex_Sfc_RLatLon0.09_PT059H.grib2 2026-05-09 09:00 2.4M
20260509T06Z_MSC_RDPS_IcePellets-Accum1h_Sfc_RLatLon0.09_PT059H.grib2 2026-05-09 09:00 11K
20260509T06Z_MSC_RDPS_IcePellets-Accum_Sfc_RLatLon0.09_PT059H.grib2 2026-05-09 09:00 41K
20260509T06Z_MSC_RDPS_KIndex_Sfc_RLatLon0.09_PT059H.grib2 2026-05-09 09:00 2.5M
20260509T06Z_MSC_RDPS_LatentHeatNetFlux_Sfc_RLatLon0.09_PT059H.grib2 2026-05-09 09:00 409K
20260509T06Z_MSC_RDPS_LiftedIndex-MU-VT_IsbL-0500_RLatLon0.09_PT059H.grib2 2026-05-09 09:00 2.4M
20260509T06Z_MSC_RDPS_NetLongwaveRadiationFlux-Accum_Sfc_RLatLon0.09_PT059H.grib2 2026-05-09 09:00 584K
20260509T06Z_MSC_RDPS_NetShortwaveRadiationFlux-Accum_Sfc_RLatLon0.09_PT059H.grib2 2026-05-09 09:00 603K
20260509T06Z_MSC_RDPS_PlanetaryBoundaryLayerHeight_Sfc_RLatLon0.09_PT059H.grib2 2026-05-09 09:00 1.0M
20260509T06Z_MSC_RDPS_Precip-Accum1h_Sfc_RLatLon0.09_PT059H.grib2 2026-05-09 09:00 1.4M
20260509T06Z_MSC_RDPS_Precip-Accum_Sfc_RLatLon0.09_PT059H.grib2 2026-05-09 09:00 2.0M
20260509T06Z_MSC_RDPS_PrecipRate_Sfc_RLatLon0.09_PT059H.grib2 2026-05-09 09:00 199K
20260509T06Z_MSC_RDPS_PrecipType-Instant_Sfc_RLatLon0.09_PT059H.grib2 2026-05-09 09:00 630K
20260509T06Z_MSC_RDPS_Pressure-Trend3h_Sfc_RLatLon0.09_PT059H.grib2 2026-05-09 09:00 1.2M
20260509T06Z_MSC_RDPS_Pressure_MSL_RLatLon0.09_PT059H.grib2 2026-05-09 09:00 330K
20260509T06Z_MSC_RDPS_Pressure_PVU-1.5_RLatLon0.09_PT059H.grib2 2026-05-09 09:00 2.5M
20260509T06Z_MSC_RDPS_Pressure_PVU-1_RLatLon0.09_PT059H.grib2 2026-05-09 09:00 2.4M
20260509T06Z_MSC_RDPS_Pressure_PVU-2_RLatLon0.09_PT059H.grib2 2026-05-09 09:00 2.4M
20260509T06Z_MSC_RDPS_Pressure_Sfc_RLatLon0.09_PT059H.grib2 2026-05-09 09:00 499K
20260509T06Z_MSC_RDPS_RadiativeTemp_Sfc_RLatLon0.09_PT059H.grib2 2026-05-09 09:00 330K
20260509T06Z_MSC_RDPS_Rain-Accum1h_Sfc_RLatLon0.09_PT059H.grib2 2026-05-09 09:00 716K
20260509T06Z_MSC_RDPS_Rain-Accum_Sfc_RLatLon0.09_PT059H.grib2 2026-05-09 09:00 1.8M
20260509T06Z_MSC_RDPS_RelativeHumidity_AGL-2m_RLatLon0.09_PT059H.grib2 2026-05-09 09:00 1.0M
20260509T06Z_MSC_RDPS_RelativeHumidity_IsbL-0010_RLatLon0.09_PT059H.grib2 2026-05-09 09:00 574K
20260509T06Z_MSC_RDPS_RelativeHumidity_IsbL-0020_RLatLon0.09_PT059H.grib2 2026-05-09 09:00 629K
20260509T06Z_MSC_RDPS_RelativeHumidity_IsbL-0030_RLatLon0.09_PT059H.grib2 2026-05-09 09:00 620K
20260509T06Z_MSC_RDPS_RelativeHumidity_IsbL-0050_RLatLon0.09_PT059H.grib2 2026-05-09 09:00 351K
20260509T06Z_MSC_RDPS_RelativeHumidity_IsbL-0100_RLatLon0.09_PT059H.grib2 2026-05-09 09:00 272K
20260509T06Z_MSC_RDPS_RelativeHumidity_IsbL-0150_RLatLon0.09_PT059H.grib2 2026-05-09 09:00 411K
20260509T06Z_MSC_RDPS_RelativeHumidity_IsbL-0175_RLatLon0.09_PT059H.grib2 2026-05-09 09:00 465K
20260509T06Z_MSC_RDPS_RelativeHumidity_IsbL-0200_RLatLon0.09_PT059H.grib2 2026-05-09 09:00 534K
20260509T06Z_MSC_RDPS_RelativeHumidity_IsbL-0225_RLatLon0.09_PT059H.grib2 2026-05-09 09:00 614K
20260509T06Z_MSC_RDPS_RelativeHumidity_IsbL-0250_RLatLon0.09_PT059H.grib2 2026-05-09 09:00 697K
20260509T06Z_MSC_RDPS_RelativeHumidity_IsbL-0275_RLatLon0.09_PT059H.grib2 2026-05-09 09:00 724K
20260509T06Z_MSC_RDPS_RelativeHumidity_IsbL-0300_RLatLon0.09_PT059H.grib2 2026-05-09 09:00 766K
20260509T06Z_MSC_RDPS_RelativeHumidity_IsbL-0350_RLatLon0.09_PT059H.grib2 2026-05-09 09:00 781K
20260509T06Z_MSC_RDPS_RelativeHumidity_IsbL-0400_RLatLon0.09_PT059H.grib2 2026-05-09 09:00 801K
20260509T06Z_MSC_RDPS_RelativeHumidity_IsbL-0450_RLatLon0.09_PT059H.grib2 2026-05-09 09:00 810K
20260509T06Z_MSC_RDPS_RelativeHumidity_IsbL-0500_RLatLon0.09_PT059H.grib2 2026-05-09 09:00 824K
20260509T06Z_MSC_RDPS_RelativeHumidity_IsbL-0550_RLatLon0.09_PT059H.grib2 2026-05-09 09:00 837K
20260509T06Z_MSC_RDPS_RelativeHumidity_IsbL-0600_RLatLon0.09_PT059H.grib2 2026-05-09 09:00 852K
20260509T06Z_MSC_RDPS_RelativeHumidity_IsbL-0650_RLatLon0.09_PT059H.grib2 2026-05-09 09:00 868K
20260509T06Z_MSC_RDPS_RelativeHumidity_IsbL-0700_RLatLon0.09_PT059H.grib2 2026-05-09 09:00 900K
20260509T06Z_MSC_RDPS_RelativeHumidity_IsbL-0750_RLatLon0.09_PT059H.grib2 2026-05-09 09:00 944K
20260509T06Z_MSC_RDPS_RelativeHumidity_IsbL-0800_RLatLon0.09_PT059H.grib2 2026-05-09 09:00 1.0M
20260509T06Z_MSC_RDPS_RelativeHumidity_IsbL-0850_RLatLon0.09_PT059H.grib2 2026-05-09 09:00 1.0M
20260509T06Z_MSC_RDPS_RelativeHumidity_IsbL-0875_RLatLon0.09_PT059H.grib2 2026-05-09 09:00 1.1M
20260509T06Z_MSC_RDPS_RelativeHumidity_IsbL-0900_RLatLon0.09_PT059H.grib2 2026-05-09 09:00 1.1M
20260509T06Z_MSC_RDPS_RelativeHumidity_IsbL-0925_RLatLon0.09_PT059H.grib2 2026-05-09 09:00 1.1M
20260509T06Z_MSC_RDPS_RelativeHumidity_IsbL-0950_RLatLon0.09_PT059H.grib2 2026-05-09 09:00 1.1M
20260509T06Z_MSC_RDPS_RelativeHumidity_IsbL-0970_RLatLon0.09_PT059H.grib2 2026-05-09 09:00 1.1M
20260509T06Z_MSC_RDPS_RelativeHumidity_IsbL-0985_RLatLon0.09_PT059H.grib2 2026-05-09 09:00 1.1M
20260509T06Z_MSC_RDPS_RelativeHumidity_IsbL-1000_RLatLon0.09_PT059H.grib2 2026-05-09 09:00 1.0M
20260509T06Z_MSC_RDPS_RelativeHumidity_IsbL-1015_RLatLon0.09_PT059H.grib2 2026-05-09 09:00 1.0M
20260509T06Z_MSC_RDPS_Runoff-Accum_Sfc_RLatLon0.09_PT059H.grib2 2026-05-09 09:00 46K
20260509T06Z_MSC_RDPS_SWEATIndex_Sfc_RLatLon0.09_PT059H.grib2 2026-05-09 09:00 2.5M
20260509T06Z_MSC_RDPS_SeeingIndex_EAtm_RLatLon0.09_PT059H.grib2 2026-05-09 09:00 1.1M
20260509T06Z_MSC_RDPS_SensibleHeatNetFlux_Sfc_RLatLon0.09_PT059H.grib2 2026-05-09 09:00 283K
20260509T06Z_MSC_RDPS_ShowalterIndex_IsbL-0500_RLatLon0.09_PT059H.grib2 2026-05-09 09:00 2.6M
20260509T06Z_MSC_RDPS_SkyTransparencyIndex_EAtm_RLatLon0.09_PT059H.grib2 2026-05-09 09:00 703K
20260509T06Z_MSC_RDPS_Snow-Accum1h_Sfc_RLatLon0.09_PT059H.grib2 2026-05-09 09:00 411K
20260509T06Z_MSC_RDPS_Snow-Accum_Sfc_RLatLon0.09_PT059H.grib2 2026-05-09 09:00 656K
20260509T06Z_MSC_RDPS_SnowDensity_Sfc_RLatLon0.09_PT059H.grib2 2026-05-09 09:00 168K
20260509T06Z_MSC_RDPS_SnowDepth_Sfc_RLatLon0.09_PT059H.grib2 2026-05-09 09:00 616K
20260509T06Z_MSC_RDPS_SoilTemp_DBS-0to10cm_RLatLon0.09_PT059H.grib2 2026-05-09 09:00 240K
20260509T06Z_MSC_RDPS_SoilTemp_Sfc_RLatLon0.09_PT059H.grib2 2026-05-09 09:00 298K
20260509T06Z_MSC_RDPS_SoilVolumetricIceContent_Sfc_RLatLon0.09_PT059H.grib2 2026-05-09 09:00 141K
20260509T06Z_MSC_RDPS_SoilVolumetricWaterContent_DBS-0to10cm_RLatLon0.09_PT059H.grib2 2026-05-09 09:00 294K
20260509T06Z_MSC_RDPS_SoilVolumetricWaterContent_DBS-0to1cm_RLatLon0.09_PT059H.grib2 2026-05-09 09:00 347K
20260509T06Z_MSC_RDPS_SpecificHumidity_AGL-120m_RLatLon0.09_PT059H.grib2 2026-05-09 09:00 515K
20260509T06Z_MSC_RDPS_SpecificHumidity_AGL-2m_RLatLon0.09_PT059H.grib2 2026-05-09 09:00 689K
20260509T06Z_MSC_RDPS_SpecificHumidity_AGL-40m_RLatLon0.09_PT059H.grib2 2026-05-09 09:00 519K
20260509T06Z_MSC_RDPS_SpecificHumidity_AGL-80m_RLatLon0.09_PT059H.grib2 2026-05-09 09:00 516K
20260509T06Z_MSC_RDPS_SpecificHumidity_IsbL-0001_RLatLon0.09_PT059H.grib2 2026-05-09 09:00 365K
20260509T06Z_MSC_RDPS_SpecificHumidity_IsbL-0005_RLatLon0.09_PT059H.grib2 2026-05-09 09:00 364K
20260509T06Z_MSC_RDPS_SpecificHumidity_IsbL-0010_RLatLon0.09_PT059H.grib2 2026-05-09 09:00 392K
20260509T06Z_MSC_RDPS_SpecificHumidity_IsbL-0020_RLatLon0.09_PT059H.grib2 2026-05-09 09:00 378K
20260509T06Z_MSC_RDPS_SpecificHumidity_IsbL-0030_RLatLon0.09_PT059H.grib2 2026-05-09 09:00 367K
20260509T06Z_MSC_RDPS_SpecificHumidity_IsbL-0050_RLatLon0.09_PT059H.grib2 2026-05-09 09:00 477K
20260509T06Z_MSC_RDPS_SpecificHumidity_IsbL-0100_RLatLon0.09_PT059H.grib2 2026-05-09 09:00 398K
20260509T06Z_MSC_RDPS_SpecificHumidity_IsbL-0150_RLatLon0.09_PT059H.grib2 2026-05-09 09:00 452K
20260509T06Z_MSC_RDPS_SpecificHumidity_IsbL-0175_RLatLon0.09_PT059H.grib2 2026-05-09 09:00 531K
20260509T06Z_MSC_RDPS_SpecificHumidity_IsbL-0200_RLatLon0.09_PT059H.grib2 2026-05-09 09:00 447K
20260509T06Z_MSC_RDPS_SpecificHumidity_IsbL-0225_RLatLon0.09_PT059H.grib2 2026-05-09 09:00 456K
20260509T06Z_MSC_RDPS_SpecificHumidity_IsbL-0250_RLatLon0.09_PT059H.grib2 2026-05-09 09:00 569K
20260509T06Z_MSC_RDPS_SpecificHumidity_IsbL-0275_RLatLon0.09_PT059H.grib2 2026-05-09 09:00 484K
20260509T06Z_MSC_RDPS_SpecificHumidity_IsbL-0300_RLatLon0.09_PT059H.grib2 2026-05-09 09:00 559K
20260509T06Z_MSC_RDPS_SpecificHumidity_IsbL-0350_RLatLon0.09_PT059H.grib2 2026-05-09 09:00 552K
20260509T06Z_MSC_RDPS_SpecificHumidity_IsbL-0400_RLatLon0.09_PT059H.grib2 2026-05-09 09:00 539K
20260509T06Z_MSC_RDPS_SpecificHumidity_IsbL-0450_RLatLon0.09_PT059H.grib2 2026-05-09 09:00 594K
20260509T06Z_MSC_RDPS_SpecificHumidity_IsbL-0500_RLatLon0.09_PT059H.grib2 2026-05-09 09:00 528K
20260509T06Z_MSC_RDPS_SpecificHumidity_IsbL-0550_RLatLon0.09_PT059H.grib2 2026-05-09 09:00 584K
20260509T06Z_MSC_RDPS_SpecificHumidity_IsbL-0600_RLatLon0.09_PT059H.grib2 2026-05-09 09:00 657K
20260509T06Z_MSC_RDPS_SpecificHumidity_IsbL-0650_RLatLon0.09_PT059H.grib2 2026-05-09 09:00 575K
20260509T06Z_MSC_RDPS_SpecificHumidity_IsbL-0700_RLatLon0.09_PT059H.grib2 2026-05-09 09:00 620K
20260509T06Z_MSC_RDPS_SpecificHumidity_IsbL-0750_RLatLon0.09_PT059H.grib2 2026-05-09 09:00 681K
20260509T06Z_MSC_RDPS_SpecificHumidity_IsbL-0800_RLatLon0.09_PT059H.grib2 2026-05-09 09:00 775K
20260509T06Z_MSC_RDPS_SpecificHumidity_IsbL-0850_RLatLon0.09_PT059H.grib2 2026-05-09 09:00 836K
20260509T06Z_MSC_RDPS_SpecificHumidity_IsbL-0875_RLatLon0.09_PT059H.grib2 2026-05-09 09:00 852K
20260509T06Z_MSC_RDPS_SpecificHumidity_IsbL-0900_RLatLon0.09_PT059H.grib2 2026-05-09 09:00 861K
20260509T06Z_MSC_RDPS_SpecificHumidity_IsbL-0925_RLatLon0.09_PT059H.grib2 2026-05-09 09:00 725K
20260509T06Z_MSC_RDPS_SpecificHumidity_IsbL-0950_RLatLon0.09_PT059H.grib2 2026-05-09 09:00 731K
20260509T06Z_MSC_RDPS_SpecificHumidity_IsbL-0970_RLatLon0.09_PT059H.grib2 2026-05-09 09:00 730K
20260509T06Z_MSC_RDPS_SpecificHumidity_IsbL-0985_RLatLon0.09_PT059H.grib2 2026-05-09 09:00 723K
20260509T06Z_MSC_RDPS_SpecificHumidity_IsbL-1000_RLatLon0.09_PT059H.grib2 2026-05-09 09:00 715K
20260509T06Z_MSC_RDPS_SpecificHumidity_IsbL-1015_RLatLon0.09_PT059H.grib2 2026-05-09 09:00 704K
20260509T06Z_MSC_RDPS_SpecificHumidity_Sfc_RLatLon0.09_PT059H.grib2 2026-05-09 09:00 353K
20260509T06Z_MSC_RDPS_StormRelativeHelicity_EtaL-10000_RLatLon0.09_PT059H.grib2 2026-05-09 09:00 1.1M
20260509T06Z_MSC_RDPS_StormSeverityIndex_EtaL-10000_RLatLon0.09_PT059H.grib2 2026-05-09 09:00 1.2M
20260509T06Z_MSC_RDPS_Thickness_IsbL-0850to0700_RLatLon0.09_PT059H.grib2 2026-05-09 09:00 250K
20260509T06Z_MSC_RDPS_Thickness_IsbL-1000to0500_RLatLon0.09_PT059H.grib2 2026-05-09 09:00 198K
20260509T06Z_MSC_RDPS_Thickness_IsbL-1000to0850_RLatLon0.09_PT059H.grib2 2026-05-09 09:00 267K
20260509T06Z_MSC_RDPS_TotalCloudCover_Sfc_RLatLon0.09_PT059H.grib2 2026-05-09 09:00 672K
20260509T06Z_MSC_RDPS_TotalTotalsIndex_Sfc_RLatLon0.09_PT059H.grib2 2026-05-09 09:00 2.4M
20260509T06Z_MSC_RDPS_UVIndex-ClearSky_Sfc_RLatLon0.09_PT059H.grib2 2026-05-09 09:00 227K
20260509T06Z_MSC_RDPS_UVIndex_Sfc_RLatLon0.09_PT059H.grib2 2026-05-09 09:00 549K
20260509T06Z_MSC_RDPS_UpwardLongwaveRadiationFlux_NTAtm_RLatLon0.09_PT059H.grib2 2026-05-09 09:00 383K
20260509T06Z_MSC_RDPS_UpwardShortwaveRadiationFlux_NTAtm_RLatLon0.09_PT059H.grib2 2026-05-09 09:00 576K
20260509T06Z_MSC_RDPS_VerticalVelocity_IsbL-0250_RLatLon0.09_PT059H.grib2 2026-05-09 09:00 568K
20260509T06Z_MSC_RDPS_VerticalVelocity_IsbL-0500_RLatLon0.09_PT059H.grib2 2026-05-09 09:00 566K
20260509T06Z_MSC_RDPS_VerticalVelocity_IsbL-0700_RLatLon0.09_PT059H.grib2 2026-05-09 09:00 553K
20260509T06Z_MSC_RDPS_VerticalVelocity_IsbL-0850_RLatLon0.09_PT059H.grib2 2026-05-09 09:00 537K
20260509T06Z_MSC_RDPS_VerticalWindShear_EtaL-6500_RLatLon0.09_PT059H.grib2 2026-05-09 09:00 1.2M
20260509T06Z_MSC_RDPS_WindChill_Sfc_RLatLon0.09_PT059H.grib2 2026-05-09 09:00 1.2M
20260509T06Z_MSC_RDPS_WindDir_AGL-10m_RLatLon0.09_PT059H.grib2 2026-05-09 09:00 1.0M
20260509T06Z_MSC_RDPS_WindDir_AGL-120m_RLatLon0.09_PT059H.grib2 2026-05-09 09:00 626K
20260509T06Z_MSC_RDPS_WindDir_AGL-40m_RLatLon0.09_PT059H.grib2 2026-05-09 09:00 647K
20260509T06Z_MSC_RDPS_WindDir_AGL-80m_RLatLon0.09_PT059H.grib2 2026-05-09 09:00 635K
20260509T06Z_MSC_RDPS_WindDir_IsbL-0001_RLatLon0.09_PT059H.grib2 2026-05-09 09:00 270K
20260509T06Z_MSC_RDPS_WindDir_IsbL-0005_RLatLon0.09_PT059H.grib2 2026-05-09 09:00 387K
20260509T06Z_MSC_RDPS_WindDir_IsbL-0010_RLatLon0.09_PT059H.grib2 2026-05-09 09:00 393K
20260509T06Z_MSC_RDPS_WindDir_IsbL-0020_RLatLon0.09_PT059H.grib2 2026-05-09 09:00 434K
20260509T06Z_MSC_RDPS_WindDir_IsbL-0030_RLatLon0.09_PT059H.grib2 2026-05-09 09:00 427K
20260509T06Z_MSC_RDPS_WindDir_IsbL-0050_RLatLon0.09_PT059H.grib2 2026-05-09 09:00 455K
20260509T06Z_MSC_RDPS_WindDir_IsbL-0100_RLatLon0.09_PT059H.grib2 2026-05-09 09:00 429K
20260509T06Z_MSC_RDPS_WindDir_IsbL-0150_RLatLon0.09_PT059H.grib2 2026-05-09 09:00 420K
20260509T06Z_MSC_RDPS_WindDir_IsbL-0175_RLatLon0.09_PT059H.grib2 2026-05-09 09:00 442K
20260509T06Z_MSC_RDPS_WindDir_IsbL-0200_RLatLon0.09_PT059H.grib2 2026-05-09 09:00 456K
20260509T06Z_MSC_RDPS_WindDir_IsbL-0225_RLatLon0.09_PT059H.grib2 2026-05-09 09:00 460K
20260509T06Z_MSC_RDPS_WindDir_IsbL-0250_RLatLon0.09_PT059H.grib2 2026-05-09 09:00 459K
20260509T06Z_MSC_RDPS_WindDir_IsbL-0275_RLatLon0.09_PT059H.grib2 2026-05-09 09:00 486K
20260509T06Z_MSC_RDPS_WindDir_IsbL-0300_RLatLon0.09_PT059H.grib2 2026-05-09 09:00 485K
20260509T06Z_MSC_RDPS_WindDir_IsbL-0350_RLatLon0.09_PT059H.grib2 2026-05-09 09:00 503K
20260509T06Z_MSC_RDPS_WindDir_IsbL-0400_RLatLon0.09_PT059H.grib2 2026-05-09 09:00 531K
20260509T06Z_MSC_RDPS_WindDir_IsbL-0450_RLatLon0.09_PT059H.grib2 2026-05-09 09:00 549K
20260509T06Z_MSC_RDPS_WindDir_IsbL-0500_RLatLon0.09_PT059H.grib2 2026-05-09 09:00 569K
20260509T06Z_MSC_RDPS_WindDir_IsbL-0550_RLatLon0.09_PT059H.grib2 2026-05-09 09:00 581K
20260509T06Z_MSC_RDPS_WindDir_IsbL-0600_RLatLon0.09_PT059H.grib2 2026-05-09 09:00 598K
20260509T06Z_MSC_RDPS_WindDir_IsbL-0650_RLatLon0.09_PT059H.grib2 2026-05-09 09:00 625K
20260509T06Z_MSC_RDPS_WindDir_IsbL-0700_RLatLon0.09_PT059H.grib2 2026-05-09 09:00 668K
20260509T06Z_MSC_RDPS_WindDir_IsbL-0750_RLatLon0.09_PT059H.grib2 2026-05-09 09:00 714K
20260509T06Z_MSC_RDPS_WindDir_IsbL-0800_RLatLon0.09_PT059H.grib2 2026-05-09 09:00 790K
20260509T06Z_MSC_RDPS_WindDir_IsbL-0850_RLatLon0.09_PT059H.grib2 2026-05-09 09:00 859K
20260509T06Z_MSC_RDPS_WindDir_IsbL-0875_RLatLon0.09_PT059H.grib2 2026-05-09 09:00 883K
20260509T06Z_MSC_RDPS_WindDir_IsbL-0900_RLatLon0.09_PT059H.grib2 2026-05-09 09:00 903K
20260509T06Z_MSC_RDPS_WindDir_IsbL-0925_RLatLon0.09_PT059H.grib2 2026-05-09 09:00 920K
20260509T06Z_MSC_RDPS_WindDir_IsbL-0950_RLatLon0.09_PT059H.grib2 2026-05-09 09:00 924K
20260509T06Z_MSC_RDPS_WindDir_IsbL-0970_RLatLon0.09_PT059H.grib2 2026-05-09 09:00 929K
20260509T06Z_MSC_RDPS_WindDir_IsbL-0985_RLatLon0.09_PT059H.grib2 2026-05-09 09:00 939K
20260509T06Z_MSC_RDPS_WindDir_IsbL-1000_RLatLon0.09_PT059H.grib2 2026-05-09 09:00 958K
20260509T06Z_MSC_RDPS_WindDir_IsbL-1015_RLatLon0.09_PT059H.grib2 2026-05-09 09:00 1.0M
20260509T06Z_MSC_RDPS_WindGust-Max_AGL-10m_RLatLon0.09_PT059H.grib2 2026-05-09 09:00 955K
20260509T06Z_MSC_RDPS_WindGust-Min_AGL-10m_RLatLon0.09_PT059H.grib2 2026-05-09 09:00 1.0M
20260509T06Z_MSC_RDPS_WindGust_AGL-10m_RLatLon0.09_PT059H.grib2 2026-05-09 09:00 1.0M
20260509T06Z_MSC_RDPS_WindSpeed_AGL-10m_RLatLon0.09_PT059H.grib2 2026-05-09 09:00 855K
20260509T06Z_MSC_RDPS_WindSpeed_AGL-120m_RLatLon0.09_PT059H.grib2 2026-05-09 09:00 556K
20260509T06Z_MSC_RDPS_WindSpeed_AGL-40m_RLatLon0.09_PT059H.grib2 2026-05-09 09:00 550K
20260509T06Z_MSC_RDPS_WindSpeed_AGL-80m_RLatLon0.09_PT059H.grib2 2026-05-09 09:00 557K
20260509T06Z_MSC_RDPS_WindSpeed_IsbL-0001_RLatLon0.09_PT059H.grib2 2026-05-09 09:00 256K
20260509T06Z_MSC_RDPS_WindSpeed_IsbL-0005_RLatLon0.09_PT059H.grib2 2026-05-09 09:00 349K
20260509T06Z_MSC_RDPS_WindSpeed_IsbL-0010_RLatLon0.09_PT059H.grib2 2026-05-09 09:00 364K
20260509T06Z_MSC_RDPS_WindSpeed_IsbL-0020_RLatLon0.09_PT059H.grib2 2026-05-09 09:00 326K
20260509T06Z_MSC_RDPS_WindSpeed_IsbL-0030_RLatLon0.09_PT059H.grib2 2026-05-09 09:00 323K
20260509T06Z_MSC_RDPS_WindSpeed_IsbL-0050_RLatLon0.09_PT059H.grib2 2026-05-09 09:00 447K
20260509T06Z_MSC_RDPS_WindSpeed_IsbL-0100_RLatLon0.09_PT059H.grib2 2026-05-09 09:00 466K
20260509T06Z_MSC_RDPS_WindSpeed_IsbL-0150_RLatLon0.09_PT059H.grib2 2026-05-09 09:00 365K
20260509T06Z_MSC_RDPS_WindSpeed_IsbL-0175_RLatLon0.09_PT059H.grib2 2026-05-09 09:00 393K
20260509T06Z_MSC_RDPS_WindSpeed_IsbL-0200_RLatLon0.09_PT059H.grib2 2026-05-09 09:00 431K
20260509T06Z_MSC_RDPS_WindSpeed_IsbL-0225_RLatLon0.09_PT059H.grib2 2026-05-09 09:00 441K
20260509T06Z_MSC_RDPS_WindSpeed_IsbL-0250_RLatLon0.09_PT059H.grib2 2026-05-09 09:00 447K
20260509T06Z_MSC_RDPS_WindSpeed_IsbL-0275_RLatLon0.09_PT059H.grib2 2026-05-09 09:00 468K
20260509T06Z_MSC_RDPS_WindSpeed_IsbL-0300_RLatLon0.09_PT059H.grib2 2026-05-09 09:00 467K
20260509T06Z_MSC_RDPS_WindSpeed_IsbL-0350_RLatLon0.09_PT059H.grib2 2026-05-09 09:00 473K
20260509T06Z_MSC_RDPS_WindSpeed_IsbL-0400_RLatLon0.09_PT059H.grib2 2026-05-09 09:00 459K
20260509T06Z_MSC_RDPS_WindSpeed_IsbL-0450_RLatLon0.09_PT059H.grib2 2026-05-09 09:00 464K
20260509T06Z_MSC_RDPS_WindSpeed_IsbL-0500_RLatLon0.09_PT059H.grib2 2026-05-09 09:00 467K
20260509T06Z_MSC_RDPS_WindSpeed_IsbL-0550_RLatLon0.09_PT059H.grib2 2026-05-09 09:00 584K
20260509T06Z_MSC_RDPS_WindSpeed_IsbL-0600_RLatLon0.09_PT059H.grib2 2026-05-09 09:00 592K
20260509T06Z_MSC_RDPS_WindSpeed_IsbL-0650_RLatLon0.09_PT059H.grib2 2026-05-09 09:00 655K
20260509T06Z_MSC_RDPS_WindSpeed_IsbL-0700_RLatLon0.09_PT059H.grib2 2026-05-09 09:00 638K
20260509T06Z_MSC_RDPS_WindSpeed_IsbL-0750_RLatLon0.09_PT059H.grib2 2026-05-09 09:00 669K
20260509T06Z_MSC_RDPS_WindSpeed_IsbL-0800_RLatLon0.09_PT059H.grib2 2026-05-09 09:00 725K
20260509T06Z_MSC_RDPS_WindSpeed_IsbL-0850_RLatLon0.09_PT059H.grib2 2026-05-09 09:00 779K
20260509T06Z_MSC_RDPS_WindSpeed_IsbL-0875_RLatLon0.09_PT059H.grib2 2026-05-09 09:00 797K
20260509T06Z_MSC_RDPS_WindSpeed_IsbL-0900_RLatLon0.09_PT059H.grib2 2026-05-09 09:00 812K
20260509T06Z_MSC_RDPS_WindSpeed_IsbL-0925_RLatLon0.09_PT059H.grib2 2026-05-09 09:00 871K
20260509T06Z_MSC_RDPS_WindSpeed_IsbL-0950_RLatLon0.09_PT059H.grib2 2026-05-09 09:00 871K
20260509T06Z_MSC_RDPS_WindSpeed_IsbL-0970_RLatLon0.09_PT059H.grib2 2026-05-09 09:00 869K
20260509T06Z_MSC_RDPS_WindSpeed_IsbL-0985_RLatLon0.09_PT059H.grib2 2026-05-09 09:00 864K
20260509T06Z_MSC_RDPS_WindSpeed_IsbL-1000_RLatLon0.09_PT059H.grib2 2026-05-09 09:00 861K
20260509T06Z_MSC_RDPS_WindSpeed_IsbL-1015_RLatLon0.09_PT059H.grib2 2026-05-09 09:00 856K
20260509T06Z_MSC_RDPS_WindU_AGL-10m_RLatLon0.09_PT059H.grib2 2026-05-09 09:00 443K
20260509T06Z_MSC_RDPS_WindU_AGL-120m_RLatLon0.09_PT059H.grib2 2026-05-09 09:00 425K
20260509T06Z_MSC_RDPS_WindU_AGL-40m_RLatLon0.09_PT059H.grib2 2026-05-09 09:00 548K
20260509T06Z_MSC_RDPS_WindU_AGL-80m_RLatLon0.09_PT059H.grib2 2026-05-09 09:00 427K
20260509T06Z_MSC_RDPS_WindU_IsbL-0001_RLatLon0.09_PT059H.grib2 2026-05-09 09:00 246K
20260509T06Z_MSC_RDPS_WindU_IsbL-0005_RLatLon0.09_PT059H.grib2 2026-05-09 09:00 287K
20260509T06Z_MSC_RDPS_WindU_IsbL-0010_RLatLon0.09_PT059H.grib2 2026-05-09 09:00 298K
20260509T06Z_MSC_RDPS_WindU_IsbL-0020_RLatLon0.09_PT059H.grib2 2026-05-09 09:00 356K
20260509T06Z_MSC_RDPS_WindU_IsbL-0030_RLatLon0.09_PT059H.grib2 2026-05-09 09:00 352K
20260509T06Z_MSC_RDPS_WindU_IsbL-0050_RLatLon0.09_PT059H.grib2 2026-05-09 09:00 339K
20260509T06Z_MSC_RDPS_WindU_IsbL-0100_RLatLon0.09_PT059H.grib2 2026-05-09 09:00 423K
20260509T06Z_MSC_RDPS_WindU_IsbL-0150_RLatLon0.09_PT059H.grib2 2026-05-09 09:00 382K
20260509T06Z_MSC_RDPS_WindU_IsbL-0175_RLatLon0.09_PT059H.grib2 2026-05-09 09:00 408K
20260509T06Z_MSC_RDPS_WindU_IsbL-0200_RLatLon0.09_PT059H.grib2 2026-05-09 09:00 424K
20260509T06Z_MSC_RDPS_WindU_IsbL-0225_RLatLon0.09_PT059H.grib2 2026-05-09 09:00 433K
20260509T06Z_MSC_RDPS_WindU_IsbL-0250_RLatLon0.09_PT059H.grib2 2026-05-09 09:00 437K
20260509T06Z_MSC_RDPS_WindU_IsbL-0275_RLatLon0.09_PT059H.grib2 2026-05-09 09:00 355K
20260509T06Z_MSC_RDPS_WindU_IsbL-0300_RLatLon0.09_PT059H.grib2 2026-05-09 09:00 353K
20260509T06Z_MSC_RDPS_WindU_IsbL-0350_RLatLon0.09_PT059H.grib2 2026-05-09 09:00 359K
20260509T06Z_MSC_RDPS_WindU_IsbL-0400_RLatLon0.09_PT059H.grib2 2026-05-09 09:00 465K
20260509T06Z_MSC_RDPS_WindU_IsbL-0450_RLatLon0.09_PT059H.grib2 2026-05-09 09:00 469K
20260509T06Z_MSC_RDPS_WindU_IsbL-0500_RLatLon0.09_PT059H.grib2 2026-05-09 09:00 471K
20260509T06Z_MSC_RDPS_WindU_IsbL-0550_RLatLon0.09_PT059H.grib2 2026-05-09 09:00 471K
20260509T06Z_MSC_RDPS_WindU_IsbL-0600_RLatLon0.09_PT059H.grib2 2026-05-09 09:00 462K
20260509T06Z_MSC_RDPS_WindU_IsbL-0650_RLatLon0.09_PT059H.grib2 2026-05-09 09:00 481K
20260509T06Z_MSC_RDPS_WindU_IsbL-0700_RLatLon0.09_PT059H.grib2 2026-05-09 09:00 505K
20260509T06Z_MSC_RDPS_WindU_IsbL-0750_RLatLon0.09_PT059H.grib2 2026-05-09 09:00 534K
20260509T06Z_MSC_RDPS_WindU_IsbL-0800_RLatLon0.09_PT059H.grib2 2026-05-09 09:00 584K
20260509T06Z_MSC_RDPS_WindU_IsbL-0850_RLatLon0.09_PT059H.grib2 2026-05-09 09:00 633K
20260509T06Z_MSC_RDPS_WindU_IsbL-0875_RLatLon0.09_PT059H.grib2 2026-05-09 09:00 649K
20260509T06Z_MSC_RDPS_WindU_IsbL-0900_RLatLon0.09_PT059H.grib2 2026-05-09 09:00 661K
20260509T06Z_MSC_RDPS_WindU_IsbL-0925_RLatLon0.09_PT059H.grib2 2026-05-09 09:00 670K
20260509T06Z_MSC_RDPS_WindU_IsbL-0950_RLatLon0.09_PT059H.grib2 2026-05-09 09:00 667K
20260509T06Z_MSC_RDPS_WindU_IsbL-0970_RLatLon0.09_PT059H.grib2 2026-05-09 09:00 663K
20260509T06Z_MSC_RDPS_WindU_IsbL-0985_RLatLon0.09_PT059H.grib2 2026-05-09 09:00 801K
20260509T06Z_MSC_RDPS_WindU_IsbL-1000_RLatLon0.09_PT059H.grib2 2026-05-09 09:00 800K
20260509T06Z_MSC_RDPS_WindU_IsbL-1015_RLatLon0.09_PT059H.grib2 2026-05-09 09:00 797K
20260509T06Z_MSC_RDPS_WindV_AGL-10m_RLatLon0.09_PT059H.grib2 2026-05-09 09:00 438K
20260509T06Z_MSC_RDPS_WindV_AGL-120m_RLatLon0.09_PT059H.grib2 2026-05-09 09:00 539K
20260509T06Z_MSC_RDPS_WindV_AGL-40m_RLatLon0.09_PT059H.grib2 2026-05-09 09:00 541K
20260509T06Z_MSC_RDPS_WindV_AGL-80m_RLatLon0.09_PT059H.grib2 2026-05-09 09:00 540K
20260509T06Z_MSC_RDPS_WindV_IsbL-0001_RLatLon0.09_PT059H.grib2 2026-05-09 09:00 248K
20260509T06Z_MSC_RDPS_WindV_IsbL-0005_RLatLon0.09_PT059H.grib2 2026-05-09 09:00 289K
20260509T06Z_MSC_RDPS_WindV_IsbL-0010_RLatLon0.09_PT059H.grib2 2026-05-09 09:00 301K
20260509T06Z_MSC_RDPS_WindV_IsbL-0020_RLatLon0.09_PT059H.grib2 2026-05-09 09:00 319K
20260509T06Z_MSC_RDPS_WindV_IsbL-0030_RLatLon0.09_PT059H.grib2 2026-05-09 09:00 316K
20260509T06Z_MSC_RDPS_WindV_IsbL-0050_RLatLon0.09_PT059H.grib2 2026-05-09 09:00 338K
20260509T06Z_MSC_RDPS_WindV_IsbL-0100_RLatLon0.09_PT059H.grib2 2026-05-09 09:00 418K
20260509T06Z_MSC_RDPS_WindV_IsbL-0150_RLatLon0.09_PT059H.grib2 2026-05-09 09:00 381K
20260509T06Z_MSC_RDPS_WindV_IsbL-0175_RLatLon0.09_PT059H.grib2 2026-05-09 09:00 406K
20260509T06Z_MSC_RDPS_WindV_IsbL-0200_RLatLon0.09_PT059H.grib2 2026-05-09 09:00 327K
20260509T06Z_MSC_RDPS_WindV_IsbL-0225_RLatLon0.09_PT059H.grib2 2026-05-09 09:00 333K
20260509T06Z_MSC_RDPS_WindV_IsbL-0250_RLatLon0.09_PT059H.grib2 2026-05-09 09:00 337K
20260509T06Z_MSC_RDPS_WindV_IsbL-0275_RLatLon0.09_PT059H.grib2 2026-05-09 09:00 354K
20260509T06Z_MSC_RDPS_WindV_IsbL-0300_RLatLon0.09_PT059H.grib2 2026-05-09 09:00 351K
20260509T06Z_MSC_RDPS_WindV_IsbL-0350_RLatLon0.09_PT059H.grib2 2026-05-09 09:00 356K
20260509T06Z_MSC_RDPS_WindV_IsbL-0400_RLatLon0.09_PT059H.grib2 2026-05-09 09:00 360K
20260509T06Z_MSC_RDPS_WindV_IsbL-0450_RLatLon0.09_PT059H.grib2 2026-05-09 09:00 362K
20260509T06Z_MSC_RDPS_WindV_IsbL-0500_RLatLon0.09_PT059H.grib2 2026-05-09 09:00 468K
20260509T06Z_MSC_RDPS_WindV_IsbL-0550_RLatLon0.09_PT059H.grib2 2026-05-09 09:00 468K
20260509T06Z_MSC_RDPS_WindV_IsbL-0600_RLatLon0.09_PT059H.grib2 2026-05-09 09:00 475K
20260509T06Z_MSC_RDPS_WindV_IsbL-0650_RLatLon0.09_PT059H.grib2 2026-05-09 09:00 477K
20260509T06Z_MSC_RDPS_WindV_IsbL-0700_RLatLon0.09_PT059H.grib2 2026-05-09 09:00 501K
20260509T06Z_MSC_RDPS_WindV_IsbL-0750_RLatLon0.09_PT059H.grib2 2026-05-09 09:00 528K
20260509T06Z_MSC_RDPS_WindV_IsbL-0800_RLatLon0.09_PT059H.grib2 2026-05-09 09:00 578K
20260509T06Z_MSC_RDPS_WindV_IsbL-0850_RLatLon0.09_PT059H.grib2 2026-05-09 09:00 627K
20260509T06Z_MSC_RDPS_WindV_IsbL-0875_RLatLon0.09_PT059H.grib2 2026-05-09 09:00 642K
20260509T06Z_MSC_RDPS_WindV_IsbL-0900_RLatLon0.09_PT059H.grib2 2026-05-09 09:00 654K
20260509T06Z_MSC_RDPS_WindV_IsbL-0925_RLatLon0.09_PT059H.grib2 2026-05-09 09:00 662K
20260509T06Z_MSC_RDPS_WindV_IsbL-0950_RLatLon0.09_PT059H.grib2 2026-05-09 09:00 660K
20260509T06Z_MSC_RDPS_WindV_IsbL-0970_RLatLon0.09_PT059H.grib2 2026-05-09 09:00 798K
20260509T06Z_MSC_RDPS_WindV_IsbL-0985_RLatLon0.09_PT059H.grib2 2026-05-09 09:00 796K
20260509T06Z_MSC_RDPS_WindV_IsbL-1000_RLatLon0.09_PT059H.grib2 2026-05-09 09:00 794K
20260509T06Z_MSC_RDPS_WindV_IsbL-1015_RLatLon0.09_PT059H.grib2 2026-05-09 09:00 837K